Hourly Data Report for July 12, 2019

TORONTO CITY
ONTARIO
Current Station Operator: ECCC - MSC

43°40'00.000" N
79°24'00.000" W
112.50 m
6158355
71508
XTO

Download Data

Hourly Data (July 2019)
Hourly Data Report for July 12, 2019
TIME
LST
Temp Definition
°C
Dew Point Definition
°C
Rel Hum Definition
%
Precip. Amount Definition
mm

Wind Dir Definition
10's deg

Wind Spd Definition
km/h
Visibility Definition
km
Stn Press Definition
kPa
Hmdx Definition


Wind Chill Definition


Weather Definition


00:00 18.2 11.9 67 0.0       99.51     LegendNANA
01:00 17.8 12.3 71 0.0       99.53     LegendNANA
02:00 18.4 13.2 72 0.0       99.53     LegendNANA
03:00 18.7 13.6 72 0.0       99.53     LegendNANA
04:00 19.0 14.2 73 0.0       99.55     LegendNANA
05:00 19.3 14.8 75 0.0       99.58     LegendNANA
06:00 19.4 14.7 74 0.0       99.64     LegendNANA
07:00 20.0 14.9 73 0.0       99.68     LegendNANA
08:00 20.0 13.6 67 0.0       99.73     LegendNANA
09:00 20.8 13.8 64 0.0       99.75     LegendNANA
10:00 20.9 13.5 63 0.0       99.79     LegendNANA
11:00 20.6 12.7 61 0.0       99.84     LegendNANA
12:00 21.3 12.6 58 0.0       99.86     LegendNANA
13:00 21.5 12.2 55 0.0       99.85     LegendNANA
14:00 22.3 12.2 53 0.0       99.83 25   LegendNANA
15:00 23.1 13.4 54 0.0       99.82 26   LegendNANA
16:00 23.3 12.9 52 0.0       99.80 26   LegendNANA
17:00 23.5 13.5 53 0.0       99.80 27   LegendNANA
18:00 22.9 14.4 59 0.0       99.77 27   LegendNANA
19:00 22.0 14.5 62 0.0       99.81 26   LegendNANA
20:00 22.5 13.3 56 0.0       99.84 25   LegendNANA
21:00 22.2 13.2 57 0.0       99.87 25   LegendNANA
22:00 20.5 13.3 63 0.0       99.89     LegendNANA
23:00 20.1 13.4 65 0.0       99.91     LegendNANA

Notes on Data Quality.

Legend

  • E = Estimated
  • M = Missing
  • NA = Not Available*
  • [empty] = Indicates an unobserved value
Date modified: